Temp
-11 -11 -11 -10 -10 -11 -12 -13 -12 -13 -13 -13 -13 -13 -12 -12 -14 -16 -16 -17 -16 -15 -16 -15 -14 -13 -14 -13 -13 -12 -12 -12 -12 -13 -13 -13 -13 -13 -13 -13 -13 -13
-11 -11 -11 -10 -10 -11 -12 -13 -12 -13 -13 -12 -12 -13 -13 -12 -12 -13 -14 -15 -15 -15 -15 -14 -13 -13 -14 -13 -13 -12 -12 -13 -13 -13 -13 -13 -13 -13 -13 -13 -14 -14
-11 -11 -11 -10 -10 -11 -12 -12 -12 -12 -13 -13 -12 -12 -14 -14 -13 -13 -13 -14 -14 -15 -14 -14 -13 -13 -14 -13 -13 -12 -12 -13 -13 -13 -13 -13 -13 -13 -13 -13 -13 -13
-11 -11 -11 -11 -10 -11 -11 -12 -12 -12 -12 -13 -13 -12 -13 -14 -14 -14 -14 -13 -13 -14 -14 -14 -14 -13 -13 -13 -12 -12 -12 -13 -13 -13 -13 -13 -13 -13 -13 -13 -13 -13
-12 -12 -11 -11 -10 -11 -11 -12 -12 -12 -12 -13 -13 -12 -12 -13 -14 -15 -14 -14 -13 -13 -13 -13 -13 -13 -12 -12 -12 -13 -13 -13 -13 -13 -13 -13 -13 -13 -13 -13 -13 -13
-12 -12 -12 -11 -11 -11 -11 -12 -12 -12 -12 -12 -12 -13 -12 -12 -13 -13 -14 -14 -13 -13 -12 -12 -12 -12 -12 -12 -13 -13 -13 -13 -13 -13 -13 -13 -13 -13 -13 -13 -13 -14
-12 -12 -12 -11 -11 -11 -11 -11 -12 -12 -12 -12 -12 -13 -12 -12 -12 -13 -13 -13 -12 -12 -12 -12 -12 -12 -12 -12 -13 -13 -12 -12 -13 -13 -13 -13 -13 -13 -13 -13 -13 -13
-12 -12 -12 -12 -11 -11 -11 -11 -11 -12 -12 -12 -12 -12 -12 -12 -12 -12 -12 -12 -12 -11 -11 -11 -12 -12 -12 -12 -12 -12 -12 -13 -13 -13 -13 -13 -13 -13 -13 -13 -13 -13
-12 -12 -12 -12 -11 -11 -11 -11 -11 -12 -12 -12 -12 -12 -12 -12 -12 -12 -12 -12 -12 -12 -11 -11 -12 -12 -12 -12 -12 -13 -13 -13 -13 -13 -13 -13 -13 -13 -13 -13 -13 -13
-12 -12 -12 -12 -12 -11 -11 -11 -12 -12 -12 -12 -12 -11 -11 -12 -12 -12 -12 -12 -12 -12 -12 -12 -12 -12 -13 -13 -13 -13 -13 -13 -13 -13 -13 -13 -13 -13 -13 -13 -13 -13
-12 -12 -12 -12 -12 -11 -11 -11 -12 -12 -12 -12 -12 -12 -11 -12 -12 -12 -12 -12 -12 -13 -12 -12 -12 -13 -13 -13 -13 -13 -13 -13 -13 -13 -13 -13 -13 -13 -13 -13 -13 -13
-12 -12 -13 -13 -12 -12 -12 -12 -12 -12 -12 -12 -12 -12 -12 -12 -12 -12 -12 -12 -12 -13 -13 -13 -12 -13 -13 -13 -13 -13 -13 -13 -13 -13 -13 -13 -13 -13 -13 -13 -14 -14
-12 -13 -13 -13 -13 -12 -12 -12 -12 -12 -12 -12 -12 -12 -12 -12 -12 -12 -13 -13 -12 -13 -13 -13 -13 -13 -13 -13 -13 -13 -13 -13 -13 -13 -13 -13 -13 -13 -13 -13 -14 -14
-12 -13 -13 -13 -13 -13 -12 -12 -12 -12 -12 -12 -13 -13 -13 -13 -13 -13 -13 -13 -13 -13 -13 -13 -13 -13 -13 -13 -13 -13 -13 -13 -13 -13 -13 -13 -13 -13 -13 -13 -14 -14
-12 -13 -13 -13 -13 -13 -13 -12 -12 -12 -12 -12 -13 -13 -13 -13 -13 -13 -13 -13 -13 -13 -13 -13 -13 -13 -13 -13 -13 -13 -13 -13 -13 -13 -13 -13 -13 -13 -13 -13 -14 -14
-13 -13 -13 -13 -13 -13 -13 -13 -13 -13 -13 -13 -13 -13 -13 -13 -13 -13 -13 -13 -13 -13 -13 -13 -13 -13 -13 -13 -13 -13 -13 -13 -13 -13 -13 -13 -13 -13 -14 -14 -14 -14
-13 -13 -13 -13 -13 -13 -13 -13 -13 -13 -13 -13 -13 -13 -13 -13 -13 -13 -13 -13 -13 -13 -13 -13 -13 -13 -13 -13 -13 -13 -13 -13 -13 -13 -14 -14 -14 -14 -14 -14 -14 -14
-13 -13 -13 -13 -13 -13 -14 -14 -13 -13 -13 -13 -13 -13 -13 -13 -13 -13 -13 -13 -13 -13 -13 -13 -13 -13 -13 -13 -13 -14 -14 -14 -14 -14 -14 -14 -14 -14 -14 -14 -14 -14
-13 -13 -13 -13 -13 -13 -14 -14 -14 -14 -13 -13 -13 -13 -13 -13 -13 -13 -14 -14 -13 -13 -13 -13 -13 -13 -13 -13 -13 -13 -14 -14 -14 -14 -14 -14 -14 -14 -14 -14 -14 -14
-13 -13 -13 -13 -13 -14 -14 -14 -14 -14 -14 -13 -13 -13 -13 -13 -13 -13 -13 -14 -14 -14 -13 -13 -13 -13 -13 -13 -13 -13 -13 -13 -14 -14 -14 -14 -14 -14 -14 -14 -14 -14
-13 -13 -13 -13 -13 -13 -14 -14 -14 -14 -14 -14 -14 -13 -13 -13 -13 -13 -13 -13 -14 -14 -14 -14 -14 -13 -13 -13 -13 -13 -13 -13 -14 -14 -14 -14 -14 -14 -14 -14 -14 -14
-13 -14 -14 -13 -13 -13 -14 -14 -14 -14 -14 -14 -14 -14 -14 -14 -14 -14 -14 -13 -13 -13 -14 -14 -14 -14 -14 -14 -14 -14 -14 -14 -14 -14 -14 -14 -14 -14 -14 -14 -14 -14
-13 -14 -14 -14 -13 -13 -13 -14 -14 -14 -14 -14 -14 -14 -14 -14 -14 -14 -14 -14 -14 -13 -13 -13 -14 -14 -14 -14 -14 -14 -14 -14 -14 -14 -14 -14 -14 -14 -14 -14 -14 -14
-14 -14 -14 -14 -13 -13 -13 -13 -14 -14 -14 -14 -14 -14 -14 -14 -14 -14 -14 -14 -14 -14 -14 -14 -14 -13 -13 -13 -14 -14 -14 -14 -14 -14 -14 -14 -14 -14 -14 -14 -14 -14
-14 -14 -14 -14 -14 -13 -13 -13 -13 -14 -14 -14 -14 -14 -14 -14 -14 -14 -14 -14 -14 -14 -14 -14 -14 -14 -14 -14 -14 -14 -14 -14 -14 -14 -14 -14 -14 -14 -14 -14 -14 -14
-14 -14 -14 -14 -14 -14 -14 -13 -13 -14 -14 -14 -14 -14 -14 -14 -14 -14 -14 -14 -14 -14 -14 -14 -14 -14 -14 -14 -14 -14 -14 -14 -14 -14 -14 -14 -14 -14 -14 -14 -14 -14
Height
5691 5689 5685 5680 5676 5671 5666 5661 5657 5650 5644 5641 5635 5625 5614 5603 5594 5590 5593 5599 5608 5618 5622 5627 5636 5646 5655 5664 5671 5677 5687 5696 5704 5710 5713 5717 5721 5723 5727 5731 5735 5739
5687 5686 5682 5678 5674 5669 5664 5660 5657 5651 5645 5641 5638 5631 5622 5615 5609 5609 5612 5615 5620 5625 5628 5634 5643 5649 5655 5663 5669 5675 5684 5693 5700 5705 5709 5713 5717 5720 5723 5727 5731 5735
5684 5683 5680 5676 5672 5667 5663 5660 5656 5652 5646 5641 5638 5635 5630 5625 5622 5621 5622 5624 5626 5628 5632 5638 5645 5651 5657 5663 5667 5673 5682 5690 5697 5702 5706 5709 5713 5717 5720 5723 5727 5730
5680 5679 5677 5674 5670 5666 5662 5659 5656 5653 5648 5643 5640 5637 5635 5633 5630 5628 5627 5628 5630 5632 5636 5642 5647 5653 5658 5663 5667 5673 5681 5687 5693 5698 5702 5706 5710 5713 5716 5719 5723 5726
5677 5676 5675 5672 5668 5665 5661 5657 5655 5653 5649 5645 5642 5639 5638 5637 5635 5634 5633 5633 5634 5637 5641 5646 5650 5654 5658 5662 5667 5673 5679 5684 5690 5696 5699 5704 5708 5710 5713 5716 5719 5722
5674 5673 5672 5670 5667 5664 5660 5657 5654 5652 5650 5647 5644 5642 5640 5639 5638 5637 5637 5637 5639 5641 5644 5648 5652 5656 5659 5663 5668 5673 5679 5683 5688 5692 5696 5700 5703 5705 5708 5711 5714 5717
5670 5670 5670 5668 5665 5663 5660 5657 5653 5651 5649 5647 5645 5643 5641 5641 5640 5639 5639 5640 5641 5643 5645 5649 5653 5657 5661 5665 5669 5674 5678 5682 5685 5688 5693 5696 5698 5700 5704 5707 5710 5713
5667 5667 5667 5666 5664 5661 5659 5656 5653 5651 5649 5647 5646 5644 5642 5642 5642 5641 5640 5640 5642 5644 5646 5650 5654 5658 5661 5665 5668 5671 5674 5677 5680 5685 5689 5692 5695 5698 5702 5705 5708 5710
5665 5664 5664 5663 5662 5659 5657 5655 5653 5651 5648 5647 5645 5644 5643 5642 5642 5643 5642 5642 5642 5644 5647 5650 5653 5657 5661 5665 5668 5670 5673 5676 5680 5684 5687 5690 5693 5697 5699 5702 5705 5707
5662 5661 5661 5661 5660 5658 5656 5654 5652 5651 5648 5646 5644 5643 5642 5642 5642 5643 5643 5643 5643 5644 5646 5649 5653 5657 5660 5664 5667 5669 5673 5676 5680 5683 5685 5688 5692 5694 5696 5699 5702 5703
5658 5658 5658 5658 5657 5656 5654 5653 5651 5650 5649 5646 5644 5643 5642 5641 5641 5641 5642 5643 5644 5645 5646 5648 5652 5655 5659 5663 5665 5668 5672 5674 5677 5680 5683 5686 5689 5691 5694 5696 5698 5700
5654 5655 5655 5655 5655 5654 5653 5651 5650 5649 5648 5647 5645 5643 5642 5641 5641 5641 5641 5643 5644 5645 5647 5648 5650 5653 5657 5660 5663 5666 5669 5671 5674 5678 5681 5684 5686 5688 5690 5692 5694 5696
5651 5651 5652 5652 5652 5652 5651 5650 5649 5648 5647 5647 5646 5644 5643 5641 5641 5641 5641 5642 5643 5645 5647 5649 5650 5652 5654 5657 5660 5663 5666 5669 5672 5675 5678 5680 5682 5684 5686 5688 5690 5691
5647 5647 5648 5649 5649 5649 5649 5648 5647 5646 5645 5645 5645 5645 5643 5642 5641 5641 5641 5642 5643 5645 5647 5649 5651 5652 5654 5656 5659 5662 5664 5667 5670 5673 5675 5677 5679 5681 5683 5685 5686 5688
5644 5644 5644 5644 5645 5646 5646 5646 5646 5645 5644 5643 5643 5644 5643 5643 5642 5641 5641 5642 5643 5644 5646 5647 5649 5651 5653 5655 5658 5660 5663 5665 5668 5670 5672 5674 5675 5677 5679 5681 5682 5684
5641 5641 5641 5640 5640 5641 5643 5644 5644 5643 5643 5642 5642 5642 5642 5643 5642 5642 5642 5642 5642 5643 5644 5646 5647 5649 5651 5653 5655 5657 5660 5662 5664 5666 5668 5670 5672 5674 5675 5677 5678 5680
5637 5636 5637 5636 5637 5637 5638 5640 5640 5641 5640 5640 5640 5641 5641 5641 5642 5642 5642 5642 5642 5643 5643 5644 5646 5647 5649 5650 5652 5654 5656 5658 5661 5663 5665 5667 5669 5671 5672 5673 5675 5676
5632 5632 5632 5632 5633 5633 5634 5635 5636 5637 5638 5638 5638 5639 5639 5640 5640 5641 5641 5641 5642 5642 5643 5644 5645 5646 5647 5648 5649 5651 5653 5656 5658 5660 5662 5664 5665 5667 5669 5670 5671 5673
5626 5628 5628 5628 5628 5629 5630 5631 5632 5633 5634 5634 5635 5636 5637 5638 5638 5639 5639 5640 5641 5641 5642 5642 5643 5644 5646 5647 5648 5650 5652 5654 5656 5657 5659 5661 5663 5665 5666 5667 5668 5669
5619 5621 5623 5623 5624 5624 5625 5627 5628 5628 5629 5630 5631 5632 5633 5634 5635 5636 5637 5637 5638 5639 5640 5641 5642 5643 5644 5645 5647 5648 5650 5651 5653 5655 5657 5658 5660 5661 5662 5663 5664 5665
5612 5614 5615 5617 5618 5619 5621 5622 5623 5624 5624 5625 5627 5628 5629 5630 5632 5633 5634 5635 5635 5636 5637 5638 5639 5640 5641 5643 5644 5646 5647 5648 5650 5652 5653 5655 5656 5657 5658 5659 5660 5661
5606 5606 5607 5609 5611 5613 5615 5617 5618 5619 5619 5620 5622 5624 5625 5626 5627 5629 5630 5631 5632 5633 5634 5635 5636 5637 5638 5639 5641 5642 5644 5645 5647 5648 5649 5651 5652 5653 5654 5655 5656 5656
5600 5599 5599 5601 5604 5606 5609 5611 5612 5613 5614 5616 5617 5619 5621 5622 5623 5624 5625 5627 5629 5630 5631 5632 5633 5634 5635 5636 5637 5639 5640 5641 5643 5644 5645 5646 5648 5649 5650 5650 5651 5652
5593 5592 5592 5594 5597 5600 5602 5604 5606 5607 5609 5611 5612 5614 5615 5617 5618 5619 5621 5622 5624 5626 5627 5628 5629 5630 5632 5633 5634 5635 5636 5638 5639 5640 5641 5642 5643 5644 5645 5646 5646 5647
5586 5586 5585 5587 5591 5594 5595 5597 5599 5601 5603 5605 5607 5608 5610 5611 5613 5614 5616 5617 5619 5620 5622 5623 5624 5626 5628 5629 5630 5632 5633 5634 5635 5636 5637 5637 5638 5639 5639 5640 5641 5641
5580 5580 5579 5580 5583 5586 5588 5590 5592 5595 5597 5599 5601 5602 5604 5605 5607 5609 5610 5612 5613 5614 5616 5617 5619 5620 5622 5624 5625 5627 5628 5629 5630 5631 5632 5632 5633 5633 5634 5635 5635 5635
Wind_Speed
37 35 37 41 41 41 42 41 41 39 31 30 34 30 25 28 22 5 20 31 36 36 40 54 61 61 65 67 63 59 60 60 58 55 54 52 50 50 50 50 50 50
36 34 35 39 40 38 38 38 37 36 31 29 31 25 16 19 23 11 18 20 17 20 37 59 65 62 64 62 58 55 55 57 56 53 54 52 50 50 49 49 50 50
36 33 33 37 38 36 35 35 34 32 28 26 29 23 11 7 9 5 1 3 7 17 40 63 70 68 64 59 56 52 52 54 52 51 54 53 50 49 48 49 49 50
36 32 31 34 36 35 32 33 32 30 25 23 25 23 12 2 5 9 7 5 8 18 41 62 69 66 59 54 52 50 52 54 50 51 53 52 49 49 48 48 48 50
36 31 29 32 34 33 30 31 32 29 23 19 21 21 15 4 8 14 15 14 13 21 42 56 61 61 55 48 49 50 52 52 48 49 51 50 48 48 48 48 48 50
35 30 28 30 32 32 29 28 32 30 22 17 17 19 17 10 8 19 22 22 22 26 37 47 50 51 48 47 49 50 50 50 48 49 51 50 48 48 50 51 50 50
35 30 27 28 30 30 28 25 27 29 23 17 16 17 16 13 8 19 26 26 26 30 36 41 43 44 46 50 51 49 48 49 51 52 51 51 50 50 49 49 48 48
35 31 27 26 28 29 28 25 23 26 25 19 16 17 16 14 10 14 25 28 30 35 38 41 43 46 50 54 55 54 52 52 53 53 52 52 52 49 45 42 41 43
34 32 28 25 26 28 27 24 21 21 24 25 23 22 21 18 14 11 20 27 31 37 41 43 45 49 52 55 56 56 53 50 49 49 51 52 48 46 45 42 39 39
34 32 28 24 24 26 27 24 21 19 18 21 23 23 24 22 16 12 15 21 27 34 40 44 47 51 54 54 54 53 49 46 45 47 50 49 47 46 45 43 41 40
35 32 29 25 22 24 26 24 22 19 16 16 17 19 20 21 18 13 13 17 22 28 37 43 47 51 53 51 50 49 46 45 45 47 48 48 48 47 44 41 40 40
36 34 30 26 23 22 24 24 21 20 17 14 13 14 14 14 14 14 13 16 20 25 33 41 46 50 51 50 49 49 47 46 46 46 47 48 48 48 44 41 39 39
37 35 31 28 24 22 23 24 22 20 19 16 13 11 10 9 10 13 15 16 18 22 28 36 43 47 49 49 48 48 47 46 45 45 45 46 48 48 44 40 37 38
39 36 33 30 27 23 22 23 22 20 19 19 16 12 9 7 7 11 16 18 19 20 23 29 35 40 43 44 45 45 45 45 44 44 42 42 43 44 42 39 39 38
39 37 35 32 29 25 22 22 23 21 20 20 19 16 12 8 7 8 13 17 19 20 21 24 27 30 33 36 38 40 43 44 45 45 43 41 40 40 41 41 41 41
39 38 36 34 32 29 25 23 23 23 21 20 20 19 16 13 10 9 10 12 16 18 21 22 23 24 26 28 30 32 34 36 37 37 38 38 39 40 41 41 41 39
38 39 38 36 34 32 29 25 24 24 23 22 21 21 20 18 15 13 12 12 12 14 16 18 18 19 21 22 23 24 26 27 29 31 32 34 36 36 36 35 34 33
38 39 38 38 36 35 32 28 26 26 26 25 23 22 22 21 19 18 16 16 15 15 15 16 16 16 17 17 18 19 20 22 24 26 27 28 29 29 29 30 29 29
40 40 39 39 39 37 35 32 29 28 28 27 26 25 24 23 23 22 21 20 19 19 19 18 18 18 17 17 17 18 19 20 21 23 24 25 26 27 28 29 30 30
42 41 41 41 41 40 38 35 33 32 31 30 29 28 26 26 26 25 25 24 23 23 23 23 23 22 21 21 20 21 21 22 22 23 24 25 27 28 29 31 32 33
44 44 43 43 42 42 40 38 37 35 34 33 32 31 30 29 28 28 28 28 27 27 26 26 27 26 26 26 25 25 25 26 26 26 27 29 30 31 32 33 34 35
45 46 46 45 45 43 41 40 40 39 37 36 35 34 33 32 31 31 31 31 31 30 30 30 30 30 30 30 30 30 30 30 30 31 32 32 33 34 35 36 37 37
46 49 50 48 47 46 44 42 42 42 41 40 38 36 36 35 35 34 34 33 33 33 33 33 33 33 32 32 32 32 32 33 33 33 34 35 35 36 37 37 38 38
48 52 53 51 48 47 46 44 43 43 43 42 41 39 38 38 38 37 36 36 35 35 36 36 36 36 35 35 34 34 34 34 34 35 36 36 37 37 38 38 38 38
49 53 55 53 48 47 48 47 45 45 44 43 42 42 41 40 40 39 39 38 38 38 38 38 38 38 38 37 37 37 36 36 37 37 37 38 39 39 39 39 39 39
49 53 55 54 49 46 47 48 46 45 45 44 44 44 44 43 42 41 41 41 41 41 41 40 40 40 40 40 39 39 38 38 39 39 39 40 40 41 41 40 40 40
Wind_Direction
297 304 308 311 316 310 298 297 303 310 313 312 325 349 2 6 21 115 173 167 170 176 185 191 190 193 197 196 196 200 203 203 201 208 217 218 221 223 223 225 227 229
297 304 308 310 317 314 299 295 301 309 317 311 317 345 2 358 17 73 147 151 159 169 179 190 195 198 199 197 195 196 197 197 199 206 214 217 220 222 223 226 227 229
296 303 308 310 316 316 301 294 298 305 320 322 314 329 358 347 340 348 82 139 164 160 172 187 195 199 201 196 192 194 194 194 199 206 212 217 220 222 225 227 228 230
296 301 308 309 314 318 304 292 295 300 314 332 323 319 336 12 233 258 272 225 181 159 170 184 193 198 199 194 191 195 194 195 202 208 213 219 222 225 228 229 230 232
295 299 306 308 311 318 310 293 291 296 304 324 333 326 324 321 194 218 236 231 210 178 175 183 192 196 196 194 194 194 193 195 202 209 215 220 223 228 232 232 233 233
293 297 302 306 308 314 316 301 289 290 298 312 327 331 324 309 214 200 213 224 220 203 191 189 193 196 196 195 193 193 193 197 202 208 214 218 222 227 230 231 232 233
290 294 298 303 306 309 315 312 294 285 290 304 316 322 324 317 260 204 204 214 217 213 205 198 197 197 195 193 192 194 197 201 204 208 212 217 222 224 227 231 234 235
288 290 295 299 302 305 310 316 307 288 282 288 300 308 313 317 293 218 202 204 209 212 211 208 205 201 196 194 194 197 201 205 206 208 211 218 222 224 228 230 233 236
286 287 291 294 297 301 305 311 315 303 287 281 284 290 294 302 302 252 214 204 205 209 212 214 212 204 198 196 197 201 206 208 208 209 214 219 222 226 229 230 233 235
284 285 287 289 291 295 299 303 310 313 305 294 286 283 284 290 296 279 237 216 208 207 209 212 209 201 196 198 201 205 209 209 210 213 218 223 226 228 231 232 234 236
281 283 283 283 284 288 293 297 301 306 310 308 297 288 284 286 289 283 254 229 217 208 204 204 202 198 198 202 205 208 210 212 213 215 220 225 228 231 232 233 235 238
278 280 280 279 277 279 284 290 295 298 301 304 302 299 294 283 276 272 257 234 221 212 205 201 200 200 202 205 208 210 213 215 216 217 221 225 230 233 232 233 236 239
274 278 279 276 272 271 276 282 286 290 293 294 295 298 302 288 258 247 244 234 222 215 211 207 204 203 205 208 210 213 215 218 219 222 226 231 234 234 232 235 240 241
271 275 277 274 268 265 267 273 278 281 284 287 287 285 289 288 258 237 234 231 224 217 214 214 212 211 211 213 215 217 219 222 225 230 236 238 236 235 238 243 244 243
268 271 274 272 268 263 260 264 269 271 273 276 279 279 275 269 257 240 232 231 229 224 219 217 216 216 216 217 219 221 224 227 230 234 239 241 240 241 244 245 245 245
264 266 268 269 267 263 259 257 260 263 264 265 270 273 271 262 251 242 232 229 230 229 228 226 222 220 220 220 221 223 225 228 231 234 237 241 243 244 245 246 247 250
260 262 263 264 265 263 259 253 253 256 257 257 259 263 265 262 253 243 234 229 227 226 227 228 225 222 222 221 220 222 224 226 229 232 236 239 242 245 247 248 250 252
257 257 259 260 260 260 258 253 249 251 253 254 252 252 256 258 255 248 238 230 227 225 224 225 224 222 220 218 216 216 217 219 222 226 229 233 237 240 242 243 245 247
259 256 255 256 257 256 256 253 249 247 248 250 250 249 249 250 252 251 245 237 229 225 224 224 225 225 223 222 221 220 220 221 222 224 226 228 231 234 237 240 242 245
263 259 255 253 254 254 253 251 249 246 245 246 247 248 246 245 246 247 246 243 237 231 226 224 223 224 224 224 225 225 226 227 228 230 231 233 235 237 239 241 243 246
263 261 256 253 251 250 249 249 248 246 244 243 243 244 245 244 244 244 244 245 243 240 235 230 227 225 224 224 224 225 227 229 230 232 234 235 237 238 239 241 243 245
261 260 257 254 252 250 247 247 247 246 244 242 241 241 242 243 243 242 242 242 242 242 240 238 235 232 229 227 226 227 228 229 230 231 233 234 236 238 240 242 244 247
258 258 257 254 253 252 249 246 246 246 245 244 242 240 239 240 241 241 241 241 241 241 241 240 239 238 235 233 232 231 231 231 232 233 235 237 239 241 243 245 248 250
256 257 257 256 253 253 252 248 247 247 246 245 243 241 239 239 239 240 241 242 242 242 242 242 241 240 239 238 237 236 236 236 237 238 239 241 243 245 248 250 253 256
255 256 258 258 255 253 252 251 248 248 247 246 245 243 242 241 240 240 240 241 242 243 243 244 244 243 243 241 241 240 240 240 241 242 244 245 247 250 252 254 257 261
255 255 257 258 256 252 250 251 250 249 249 248 247 245 244 243 242 241 240 240 241 242 243 244 246 246 246 246 245 245 244 244 245 246 247 249 250 253 255 258 261 264